{"data":{"norad_id":64109,"epoch":"2026-09-20T10:53:27.380832Z","epoch_age_seconds":144453,"freshness":"FRESH","line1":"1 64109U 25110P   26263.45378913  .00019119  00000+0  62574-3 0  9995","line2":"2 64109  53.1575 200.5500 0001740  94.9795 265.1406 15.31728265 75720","mean_motion":15.31728265,"eccentricity":0.000174,"inclination_deg":53.1575,"raan_deg":200.55,"arg_perigee_deg":94.9795,"mean_anomaly_deg":265.1406,"bstar":0.00062574,"rev_number":7572,"period_min":94.011453134607,"perigee_km":469.46405009033,"apogee_km":471.84742996386,"semimajor_km":6848.7927400271,"source":"CELESTRAK","updated_at":"2026-09-21T09:00:35.229163Z"}}